Location: Blairvadach
(56.2780°N, 6.9720°W)
Time: 03:41:26
(UTC+00:00)

Envisat - Pass Details

Date: 22 November 2019
Orbit: 764 x 766 km, 98.1° (Epoch: 06 December)

Event Time Altitude Azimuth Distance (km) Brightness Sun altitude
Rises 05:45:26 0° 26° (NNE) 3,246 6.5 -20.5°
Reaches altitude 10° 05:49:03 10° 53° (NE) 2,313 6.1 -20.0°
Maximum altitude 05:51:31 13° 82° (E) 2,074 6.3 -19.7°
Drops below altitude 10° 05:53:58 10° 111° (ESE) 2,305 6.6 -19.3°
Sets 05:57:33 0° 138° (SE) 3,224 7.0 -18.8°
